Weather in Medet

Russia / Omsk Oblast     54°11′03″N   75°32′29″E
temp.,
°C
wind,
m/s
gust,
m/s
humid.,
%
clouds,
%
prec.,
mm/h
press.,
hPa
HPBL,
m
12 may, wed
wed1200:00+12nnw44410 0.0 102350
03:00+10nnw33430 0.0 102334
06:00+10nw33484 0.0 102340
09:00+16nw333786 0.0 1022450
12:00+21nw462695 0.0 10211954
15:00+23nw6824100 0.0 10192990
18:00+21nw6933100 0.0 10192380
21:00+16nw4106559 0.2 1019383
13 may, thu
thu1300:00+14nnw61154100 0.2 1019406
03:00+12nnw61053100 0.0 1019384
06:00+10nnw49615 0.0 1020330
09:00+14nnw584598 0.0 10201082
12:00+15nnw6835100 0.0 10201235
15:00+9wnw5775100 0.7 1020351
18:00+11n577197 1.0 1019422
21:00+11nnw47775 0.0 1020162
14 may, fri
fri1400:00+9nnw49893 0.0 1021175
03:00+8nnw411925 0.0 1022263
06:00+8nnw379277 0.0 1025180
09:00+13n576713 0.0 1026758
12:00+17n57330 0.0 10261269
15:00+20n56240 0.0 10261595
18:00+20nnw56220 0.0 10261554
21:00+16nnw22312 0.0 102711
15 may, sat
sat1500:00+14w22360 0.0 102610
03:00+12sw33395 0.0 102535
06:00+12wsw4843100 0.0 1025119
09:00+19wsw583093 0.0 1024405
12:00+25wsw672669 0.0 10221123
15:00+24wsw583451 0.1 1021637
18:00+27wnw68285 0.1 10192361
21:00+22sw5849100 0.4 1018130
16 may, sun
sun1600:00+18sw5126266 0.7 1017197
03:00+17w486311 0.0 1016125
06:00+17wnw4106353 0.0 1016200
09:00+24w693917 0.0 1015495
12:00+29w812288 0.0 10142657
15:00+29nw9112696 0.0 10133095
18:00+26n910393 0.0 10131872
21:00+22nnw594919 0.0 1015259